Regional Weather Roundup
Issued by NWS Newport/Morehead, NC

Current Version | Previous Version | Graphics & Text | Print | Product List | Glossary Off
Versions: 1 2 3 4 5 6 7 8 9 10 11 12 13 14 15 16 17 18 19 20 21 22 23 24 25 26 27 28 29 30 31 32 33 34 35 36 37 38 39 40 41 42 43 44 45 46 47 48 49 50

000
ASUS42 KMHX 050313
RWRMHX
WEATHER ROUNDUP FOR EASTERN NORTH CAROLINA
NATIONAL WEATHER SERVICE NEWPORT/MOREHEAD CITY NC
1100 PM EDT TUE AUG 04 2015

NOTE: "FAIR" INDICATES FEW OR NO CLOUDS BELOW 12,000 FEET
WITH NO SIGNIFICANT WEATHER AND/OR OBSTRUCTIONS TO VISIBILITY

NCZ015>017-031-032-045>047-102-103-050400-
NORTH COAST

CITY           SKY/WX    TMP DP  RH WIND       PRES   REMARKS
EDENTON          N/A     78  74  87 S7        29.96S
ELIZABETH CITY MOCLDY    78  74  87 S8        29.96S
KITTY HAWK     CLOUDY    80  75  86 S6        29.97R
MANTEO         CLOUDY    80  76  86 S21       29.98S

$$

NCZ045>047-081-094-103-104-050400-
CENTRAL COAST

CITY           SKY/WX    TMP DP  RH WIND       PRES   REMARKS
FRISCO         CLOUDY    77  75  93 S9        29.98F
SWANQUARTER      N/A     81 N/A N/A S9        29.94R

$$

NCZ095-097-098-100-101-050400-
SOUTHERN COAST

CITY           SKY/WX    TMP DP  RH WIND       PRES   REMARKS
BEAUFORT       CLOUDY    80  78  94 SW15G22   29.96S
CEDAR ISLAND     N/A     79 N/A N/A S3G12     30.00S
JACKSONVILLE   PTCLDY    77  75  93 SW5       29.95S
PINEY ISLAND   MOCLDY   N/A N/A N/A S6        29.97R
WILMINGTON     PTCLDY    78  77  96 SW3       29.97R


$$

NCZ011>013-027>030-043-044-078>080-089-090>093-098-050400-
COASTAL PLAIN

CITY           SKY/WX    TMP DP  RH WIND       PRES   REMARKS
AHOSKIE        FAIR     N/A N/A N/A S5        29.96S
CLINTON          N/A     76  74  96 CALM      29.97R FOG
ELIZABETHTOWN  CLEAR     77  75  95 S3        29.97S
GOLDSBORO      CLEAR     76  73  90 SE3       29.95R
GREENVILLE     CLEAR     77  73  88 S5        29.98S
HAVELOCK       CLOUDY    78  76  93 SE5       29.97R
KENANSVILLE    CLEAR     73  71  94 CALM      29.98R
KINSTON        CLEAR     75  72  92 CALM      29.97S
NEW BERN       MOCLDY    78  74  87 SW5       29.96S
RICHLANDS      CLEAR     73  70  88 CALM      29.96S
ROCKY MOUNT    CLEAR     77  72  84 S3        29.96R
WASHINGTON     PTCLDY    76  73  90 CALM      29.96R
WHITEVILLE     CLEAR     78  75  91 CALM      29.98R

$$

AMZ130-135-150-152-154-156-158-170-250-252-270-ANZ085-086-088-633-658-670-050400-
MARINE OBSERVATIONS

STATION/POSITION TIME  TEMP    WIND        PRES    WAVE   SWELL
                       AIR SEA DIR/SP/G            HT/PER HT/PER
                 (UTC) (F)     (DEG/KT/KT) (MB)    (FT/S) (FT/S)
CHESAPEAKE LIGHT 0300   78     180/ 19/ 20 1014.3
64 E VA BEACH    0250   81 81  200/ 19/ 23 1014.3    5/ 6   2/11
DUCK             0200   79 62  190/ 13/ 20 1013.8
2 E DUCK         0211      64                N/A     2/12   2/12
OREGON INLET     0200   80 82  170/ 17/ 20 1014.8
13E OREGON INLT  0300      80                N/A     5/ 5   2/11
HATTERAS CG      0200   76 79  170/ 14/ 22 1014.8
DIAMOND BUOY     0250   79 83  170/ 25/ 29 1014.8    6/ 7   2/ 8
CAPE LOOKOUT     0300   79     220/ 14/ 20 1014.7
BEAUFORT LAB     0200   81 80  210/ 11/ 15 1013.7
30 SE NEW RVR IN NOT AVBL
27 SE WRIGHTSVLE 0200   79 82  240/ 19/ 23   N/A
5 SE WRIGHTSVLE  0208   81 81  240/ 10/ 12 1014.8
225 S CAPE HAT   0250   82 81  220/ 14/ 16 1018.9    6/ 7   5/ 7
41 SE CHARLESTON 0250   82 83  210/ 16/ 17 1015.2    4/ 7   2/ 7

$$



USA.gov is the U.S. government's official web portal to all federal, state and local government web resources and services.